User: anonymous   Login
Location: La Comballaz
(46.3780°N, 7.0817°E)
Time: 20:28:31
(UTC+00:00)
Language:

SPOT 1/Viking Rocket - Orbit

View from above orbital plane
View from above orbital plane
View from above satellite
View from above satellite

Ground track
Ground track

The orbit data is extracted from the following two-line orbital elements,

1 16615U 86019C   20185.17701307 -.00000002  00000-0  15424-4 0  9998
2 16615  98.4763 250.1479 0011814  10.8164  45.7985 14.31798888798617
Epoch (UTC): 03 July 2020 04:14:53
Eccentricity: 0.0011814
inclination: 98.4763°
perigee height: 777 km
apogee height: 794 km
right ascension of ascending node: 250.1479°
argument of perigee: 10.8164°
revolutions per day: 14.31798888
mean anomaly at epoch: 45.7985°
orbit number at epoch: 79861

The dashed part of the orbit path shows where the satellite is in the earth's shadow,  

DLR